Weather History for Langdon, ND

Change the Weather History Date:

Saturday, July 20, 2013

  Actual Average (KDVL) Record (KDVL)
Temperature  
Mean Temperature 56 °F -  
Max Temperature 64 °F 80 °F 99 °F (1960)
Min Temperature 48 °F 56 °F 44 °F (2000)
Degree Days  
Heating Degree Days 9    
Growing Degree Days 6 (Base 50)    
Moisture  
Dew Point 40 °F    
Average Humidity 56    
Maximum Humidity 59    
Minimum Humidity 52    
Precipitation  
Precipitation 0.00 in - - ()
Sea Level Pressure  
Sea Level Pressure 30.04 in    
Wind  
Wind Speed 8 mph (NE)    
Max Wind Speed 13 mph    
Max Gust Speed 20 mph    
Visibility 10 miles    
Events      
Averages and records for this station are not official NWS values.
T = Trace of Precipitation, MM = Missing Value Source: NWS Daily Summary

Daily Weather History Graph

Daily Weather History Graph

Search for Another Location

Airport:

Trip Planner

Search our weather history database for the weather conditions in past years. The results will help you decide how hot, cold, wet, or windy it might be!

Date:

Astronomy

Jul. 20, 2013 Rise Set
Actual Time 5:52 AM CDT 9:26 PM CDT
Civil Twilight 5:13 AM CDT 10:05 PM CDT
Nautical Twilight 4:20 AM CDT 10:58 PM CDT
Astronomical Twilight 3:06 AM CDT 12:10 AM CDT
Moon 7:30 PM CDT (7/20) 3:34 AM CDT (7/20)
Length of Visible Light 16h 52m
Length of Day
15h 34m
Waxing Gibbous, 94% of the Moon is Illuminated
Jul 20
Waxing Gibbous
Jul 22
Full
Jul 29
Last Quarter
Aug 6
New
Aug 14
First Quarter

Hourly Weather History & Observations

Time (CDT) Temp. Dew Point Humidity Pressure Visibility Wind Dir Wind Speed Gust Speed Precip Events Conditions
12:15 AM 57.2 °F 41.0 °F 55% 29.99 in 10.0 mi NE 10.4 mph - N/A   Overcast
12:35 AM 57.2 °F 41.0 °F 55% 30.00 in 10.0 mi NE 10.4 mph - N/A   Overcast
12:55 AM 55.4 °F 39.2 °F 54% 30.01 in 10.0 mi NE 12.7 mph 19.6 mph N/A   Overcast
1:15 AM 55.4 °F 39.2 °F 54% 30.01 in 10.0 mi NE 11.5 mph - N/A   Overcast
1:35 AM 55.4 °F 39.2 °F 54% 30.00 in 10.0 mi NE 12.7 mph - N/A   Overcast
1:55 AM 53.6 °F 39.2 °F 58% 30.00 in 10.0 mi NE 9.2 mph - N/A   Overcast
2:15 AM 53.6 °F 37.4 °F 54% 30.00 in 10.0 mi NE 8.1 mph - N/A   Overcast
2:35 AM 53.6 °F 37.4 °F 54% 30.00 in 10.0 mi NE 11.5 mph - N/A   Overcast
2:55 AM 51.8 °F 35.6 °F 54% 30.00 in 10.0 mi NE 9.2 mph - N/A   Scattered Clouds
3:15 AM 50.0 °F 35.6 °F 58% 30.00 in 10.0 mi NE 10.4 mph - N/A   Scattered Clouds
3:35 AM 50.0 °F 35.6 °F 58% 30.01 in 10.0 mi NNE 10.4 mph - N/A   Overcast
3:55 AM 50.0 °F 35.6 °F 58% 30.02 in 10.0 mi NNE 6.9 mph - N/A   Overcast
4:15 AM 50.0 °F 35.6 °F 58% 30.01 in 10.0 mi NE 9.2 mph - N/A   Overcast
4:35 AM 50.0 °F 35.6 °F 58% 30.02 in 10.0 mi NNE 6.9 mph - N/A   Scattered Clouds
4:55 AM 48.2 °F 32.0 °F 54% 30.03 in 10.0 mi NNE 4.6 mph - N/A   Mostly Cloudy
5:15 AM 48.2 °F 33.8 °F 58% 30.03 in 10.0 mi NNE 4.6 mph - N/A   Mostly Cloudy
5:35 AM 48.2 °F 32.0 °F 54% 30.04 in 10.0 mi Calm Calm - N/A   Mostly Cloudy
5:55 AM 48.2 °F 32.0 °F 54% 30.04 in 10.0 mi North 5.8 mph - N/A   Mostly Cloudy
6:15 AM 48.2 °F 33.8 °F 58% 30.04 in 10.0 mi NNE 5.8 mph - N/A   Mostly Cloudy
6:35 AM 50.0 °F 35.6 °F 58% 30.04 in 10.0 mi NE 6.9 mph - N/A   Mostly Cloudy
6:55 AM 50.0 °F 35.6 °F 58% 30.05 in 10.0 mi NE 6.9 mph - N/A   Overcast
7:15 AM 50.0 °F 35.6 °F 58% 30.06 in 10.0 mi ENE 5.8 mph - N/A   Overcast
7:35 AM 50.0 °F 35.6 °F 58% 30.06 in 10.0 mi ENE 8.1 mph - N/A   Overcast
7:55 AM 51.8 °F 35.6 °F 54% 30.06 in 10.0 mi ENE 9.2 mph - N/A   Mostly Cloudy
8:15 AM 51.8 °F 35.6 °F 54% 30.07 in 10.0 mi ENE 6.9 mph - N/A   Partly Cloudy
8:35 AM 53.6 °F 37.4 °F 54% 30.08 in 10.0 mi ENE 10.4 mph - N/A   Clear
8:55 AM 53.6 °F 37.4 °F 54% 30.08 in 10.0 mi ENE 8.1 mph - N/A   Partly Cloudy
9:15 AM 55.4 °F 39.2 °F 54% 30.08 in 10.0 mi ENE 9.2 mph - N/A   Partly Cloudy
9:35 AM 55.4 °F 39.2 °F 54% 30.09 in 10.0 mi ENE 8.1 mph - N/A   Clear
9:55 AM 55.4 °F 39.2 °F 54% 30.09 in 10.0 mi ENE 8.1 mph - N/A   Clear
10:15 AM 57.2 °F 41.0 °F 55% 30.09 in 10.0 mi ENE 6.9 mph - N/A   Clear
10:35 AM 57.2 °F 41.0 °F 55% 30.09 in 10.0 mi ENE 8.1 mph - N/A   Clear
10:55 AM 57.2 °F 42.8 °F 59% 30.09 in 10.0 mi ENE 9.2 mph - N/A   Clear
11:15 AM 59.0 °F 42.8 °F 55% 30.08 in 10.0 mi NE 4.6 mph - N/A   Partly Cloudy
11:35 AM 57.2 °F 41.0 °F 55% 30.08 in 10.0 mi NE 8.1 mph - N/A   Partly Cloudy
11:55 AM 59.0 °F 42.8 °F 55% 30.08 in 10.0 mi North 8.1 mph - N/A   Scattered Clouds
12:15 PM 59.0 °F 44.6 °F 59% 30.08 in 10.0 mi NE 8.1 mph - N/A   Mostly Cloudy
12:35 PM 59.0 °F 44.6 °F 59% 30.07 in 10.0 mi NNE 8.1 mph - N/A   Partly Cloudy
12:55 PM 60.8 °F 44.6 °F 55% 30.07 in 10.0 mi NE 9.2 mph - N/A   Clear
1:15 PM 60.8 °F 44.6 °F 55% 30.07 in 10.0 mi NNE 5.8 mph - N/A   Mostly Cloudy
1:35 PM 60.8 °F 44.6 °F 55% 30.06 in 10.0 mi NNE 9.2 mph - N/A   Scattered Clouds
1:55 PM 60.8 °F 44.6 °F 55% 30.06 in 10.0 mi NE 10.4 mph - N/A   Partly Cloudy
2:15 PM 60.8 °F 44.6 °F 55% 30.05 in 10.0 mi NNE 6.9 mph - N/A   Scattered Clouds
2:35 PM 62.6 °F 46.4 °F 55% 30.05 in 10.0 mi NNE 8.1 mph - N/A   Partly Cloudy
2:55 PM 62.6 °F 46.4 °F 55% 30.05 in 10.0 mi NNE 8.1 mph - N/A   Partly Cloudy
3:15 PM 62.6 °F 46.4 °F 55% 30.05 in 10.0 mi NNE 4.6 mph - N/A   Scattered Clouds
3:35 PM 64.4 °F 46.4 °F 52% 30.04 in 10.0 mi NE 10.4 mph - N/A   Scattered Clouds
3:55 PM 62.6 °F 46.4 °F 55% 30.04 in 10.0 mi ENE 8.1 mph - N/A   Mostly Cloudy
4:15 PM 62.6 °F 46.4 °F 55% 30.04 in 10.0 mi NE 6.9 mph - N/A   Mostly Cloudy
4:35 PM 62.6 °F 46.4 °F 55% 30.04 in 10.0 mi NE 9.2 mph - N/A   Mostly Cloudy
4:55 PM 60.8 °F 44.6 °F 55% 30.04 in 10.0 mi NNE 6.9 mph - N/A   Mostly Cloudy
5:15 PM 62.6 °F 46.4 °F 55% 30.04 in 10.0 mi ENE 9.2 mph - N/A   Mostly Cloudy
5:35 PM 60.8 °F 44.6 °F 55% 30.03 in 10.0 mi East 8.1 mph - N/A   Mostly Cloudy
5:55 PM 62.6 °F 46.4 °F 55% 30.03 in 10.0 mi NE 10.4 mph - N/A   Mostly Cloudy
6:15 PM 62.6 °F 46.4 °F 55% 30.02 in 10.0 mi NE 6.9 mph - N/A   Mostly Cloudy
6:35 PM 62.6 °F 46.4 °F 55% 30.02 in 10.0 mi NE 5.8 mph - N/A   Scattered Clouds
6:55 PM 62.6 °F 46.4 °F 55% 30.02 in 10.0 mi NNE 6.9 mph - N/A   Scattered Clouds
7:15 PM 60.8 °F 44.6 °F 55% 30.02 in 10.0 mi ENE 8.1 mph - N/A   Partly Cloudy
7:35 PM 60.8 °F 44.6 °F 55% 30.02 in 10.0 mi NE 5.8 mph - N/A   Clear
7:55 PM 60.8 °F 44.6 °F 55% 30.01 in 10.0 mi East 6.9 mph - N/A   Clear
8:15 PM 59.0 °F 44.6 °F 59% 30.01 in 10.0 mi ENE 9.2 mph - N/A   Clear
8:35 PM 57.2 °F 42.8 °F 59% 30.01 in 10.0 mi ENE 5.8 mph - N/A   Clear
8:55 PM 57.2 °F 41.0 °F 55% 30.01 in 10.0 mi ENE 5.8 mph - N/A   Clear
9:15 PM 55.4 °F 39.2 °F 54% 30.02 in 10.0 mi ENE 4.6 mph - N/A   Clear
9:35 PM 53.6 °F 37.4 °F 54% 30.02 in 10.0 mi ENE 5.8 mph - N/A   Clear
9:55 PM 53.6 °F 37.4 °F 54% 30.02 in 10.0 mi East 5.8 mph - N/A   Clear
10:15 PM 51.8 °F 37.4 °F 58% 30.02 in 10.0 mi ENE 5.8 mph - N/A   Clear
10:35 PM 50.0 °F 35.6 °F 58% 30.02 in 10.0 mi ENE 5.8 mph - N/A   Clear
10:55 PM 50.0 °F 35.6 °F 58% 30.02 in 10.0 mi East 5.8 mph - N/A   Clear
11:15 PM 50.0 °F 35.6 °F 58% 30.02 in 10.0 mi ENE 5.8 mph - N/A   Clear
11:35 PM 50.0 °F 33.8 °F 54% 30.01 in 10.0 mi ENE 4.6 mph - N/A   Clear
11:55 PM 48.2 °F 32.0 °F 54% 30.01 in 10.0 mi East 5.8 mph - N/A   Clear